Showing default

ESEO, 43792

Orbit data source: Space-Track

ESEO, 43792 is a payload satellite owned by ESA (ESA) in SSO that was launched on Mon, 03 Dec 2018 UTC via an FALCON 9 launch vehicle from the Air Force Western Test Range (AFWTR). Payload-class satellites include a variety of spacecraft equipped with specific instruments for various scientific and technological missions. These include communications satellites like Starlink; space stations such as the ISS; scientific satellites like the Hubble; Earth observation satellites from companies like Planet Labs, Umbra, and HawkEye 360; GPS; miniature CubeSats for education and research; and military/defense satellites.

Loading next visibility...
Identifier
43792, 2018-099AL
Orbit
SSO
Country
Flag of ESAESA
Related business
Manufacturer
ESTEC/OHBI
Mission
Operational Civil Technology
Bus & Motor
ESEO, Unknown motor
Mass
120 kg wet, 120 kg dry
Launch date (UTC)
2018-12-03 (7 years ago)
Launch vehicle
FALCON 9
Launch site
Air Force Western Test Range (AFWTR)
Object type
Payload
Rocket body
Debris
Shape & HBR
Box, 0.3 m
Radar Cross Section
0.262 m², Medium (>0.1 m² and < 1m²)

Expand to show TLE details & history
Last TLE update: 7 hours ago

TLE from 7 hours ago
0 ESEO
1 43792U 18099AL  25301.62069875  .00002256  00000-0  17076-3 0  9995
2 43792  97.4288 343.6379 0013356  46.6348 313.5988 15.03211040377000
Epoch: 2025-10-28T14:53Z
TLE epoch observation values (Epoch: 2025-10-28T14:53:48.371Z)
Latitude
-0.00002°
Longitude
82.98078°
Altitude
553.687 km
Speed
7.588 km/s
True Right ascension
22h 54m 33s
True Declination
0° 00' 00"
Sunlit
Object was in full shadow at epoch
Visualization orbit readout
Latitude
Unknown
Longitude
Unknown
Altitude
Unknown
Speed
Unknown
Apparent Right ascension
Unknown
Apparent Declination
Unknown
Sunlit
N/A
Visualization observer readout
Local Sidereal Time
17:36:07
Azimuth
Unknown
Elevation
Unknown
Doppler factor
Unknown
Orbital elements
Apogee altitude
563.25 km
Perigee altitude
544.733 km
Semi-major axis
6,932.129 km
Eccentricity
0.00134
Inclination
97.4288°
RAAN
343.6379°
Arg. of periapsis
46.6348°
True anomaly
313.48784°
Mean anomaly
313.5988°
Eccentric anomaly
313.54333°
Mean motion
3.76048 °/min
Orbital period
95.73 mins
BSTAR
0.00017076
Loading maneuver chart data...
Computing Atmospheric mass density...
Loading historical data...
Loading historical data...
Loading historical data...
Loading historical data...
Loading historical data...
Loading historical data...
Loading historical data...

Documentation

Showing up to 5 results
|